This is the latest recevied weather packets stored in our database for station/object OE-11372. If no packets are shown the sender has not sent any weather packets the latest 10 day(s).
| Time | Temp. | Humidity | Pressure | Rain* | Wind** | Luminosity | Snow |
|---|---|---|---|---|---|---|---|
| 1788058503 | 12.78° C | 88% | 853.4 hPa | 0 mm | - | 0 W/m² | - |
| 1788057676 | 12.78° C | 90% | 853.4 hPa | 0 mm | - | 0 W/m² | - |
| 1788057303 | 12.78° C | 88% | 853.4 hPa | 0 mm | - | 0 W/m² | - |
| 1788056703 | 12.78° C | 88% | 853.4 hPa | 0 mm | - | 0 W/m² | - |
| 1788055876 | 12.78° C | 88% | 853.4 hPa | 0 mm | - | 0 W/m² | - |
| 1788055503 | 12.78° C | 88% | 853.4 hPa | 0 mm | - | 0 W/m² | - |
| 1788054902 | 12.78° C | 88% | 853.5 hPa | 0 mm | - | 0 W/m² | - |
| 1788054076 | 12.78° C | 87% | 853.5 hPa | 0 mm | - | 0 W/m² | - |
| 1788053702 | 12.78° C | 86% | 853.7 hPa | 0 mm | - | 0 W/m² | - |
| 1788053103 | 12.78° C | 86% | 853.7 hPa | 0 mm | - | 0 W/m² | - |
| 1788052275 | 12.78° C | 86% | 853.7 hPa | 0 mm | - | 0 W/m² | - |
| 1788051903 | 12.78° C | 87% | 853.7 hPa | 0 mm | - | 0 W/m² | - |
| 1788051303 | 13.33° C | 86% | 853.8 hPa | 0 mm | - | 0 W/m² | - |
| 1788050475 | 12.78° C | 86% | 853.7 hPa | 0 mm | - | 0 W/m² | - |
| 1788050103 | 12.78° C | 86% | 853.8 hPa | 0 mm | - | 0 W/m² | - |
| 1788049503 | 12.78° C | 87% | 853.9 hPa | 0 mm | - | 0 W/m² | - |
| 1788048675 | 12.78° C | 87% | 853.7 hPa | 0 mm | - | 0 W/m² | - |
| 1788048303 | 12.78° C | 88% | 853.9 hPa | 0 mm | - | 0 W/m² | - |
| 1788047703 | 12.78° C | 88% | 853.9 hPa | 0 mm | - | 0 W/m² | - |
| 1788046875 | 12.22° C | 88% | 853.8 hPa | 0 mm | - | 0 W/m² | - |
| 1788046503 | 12.22° C | 90% | 853.9 hPa | 0 mm | - | 0 W/m² | - |
| 1788045902 | 12.78° C | 86% | 853.7 hPa | 0 mm | - | 0 W/m² | - |
| 1788045303 | 12.22° C | 86% | 853.6 hPa | 0 mm | - | 0 W/m² | - |
| 1788044703 | 12.22° C | 87% | 853.6 hPa | 0 mm | - | 0 W/m² | - |
| 1788044103 | 12.22° C | 87% | 853.3 hPa | 0 mm | - | 0 W/m² | - |
* Rain latest hour (hover to see other rain measurements)
** Current wind speed in m/s (hover to see current wind gust speed)